Vertical_Velocity
0 -1 -4 -4 -2 -1 0 -3 -2 0 1 8 1 -2 -2 -0 -0 3 2 1 2 7 3 8 5 4 -3 -1 4 3 4 1 -2 4 0 8 -1 1 -1 3 -2 0 1 -0 4 1 -3
-2 1 -4 -4 -1 3 4 3 -2 -4 -3 -2 2 -1 3 -1 0 2 2 -1 3 1 1 -1 1 3 -1 10 -5 2 2 8 4 -0 -2 -3 6 -1 2 -2 -2 3 2 0 -2 -2 -3
-1 -1 1 1 -1 -3 -1 2 3 6 1 -0 -0 -0 -1 -1 -1 2 1 -1 -2 2 -2 1 3 -3 7 -5 2 4 5 -6 3 -1 0 4 -1 -10 -1 3 1 -1 -0 -3 -3 -2 -1
-0 -0 -2 -2 -1 1 2 0 -5 -7 -4 -7 -5 -1 -3 0 1 -0 -1 0 1 5 6 2 2 -0 -1 2 -2 1 -1 -2 5 0 -4 2 1 -5 -3 5 -3 2 -0 0 -0 -0 -0
-2 -1 1 1 -1 -2 -1 -0 2 0 1 1 -1 -2 -2 -3 -2 -1 -2 -0 -3 -1 4 6 7 10 -3 -3 4 -0 1 -1 -4 -6 7 0 -5 -0 3 2 -3 -2 -1 -1 -2 -0 -1
-2 -2 -3 -0 -1 -1 -3 -2 -2 -0 0 -0 0 -0 -2 -2 -2 -1 -1 -1 2 -3 -3 -1 -4 -2 1 1 -1 2 3 0 -1 8 1 1 1 0 -2 -5 -3 -0 -0 -1 -1 -4 -0
-0 -2 -4 -4 -1 -0 0 -2 -1 -1 -0 -1 -1 -2 -2 0 0 -2 -1 1 -1 0 3 -2 -1 -1 1 2 4 -0 -2 -1 5 3 -0 -1 -2 -1 -1 0 -0 -2 -2 -0 1 -1 -3
-1 -0 1 0 -1 -1 1 1 -2 -0 -0 1 -2 0 -1 -2 -0 -1 0 1 1 1 -3 0 -1 -0 -1 -2 -2 -0 -1 1 -3 -2 -0 -1 -2 -0 -1 -1 -2 -1 -2 -1 1 -0 -4
-2 -1 -2 0 -0 -0 -2 0 1 -0 -1 1 -0 1 1 -3 -2 -3 -3 2 2 1 -6 0 2 2 1 -0 -1 -2 -2 -5 -4 -4 -3 -1 -0 -1 -1 -0 -0 -1 -1 -3 -3 -2 -4
-2 -1 -1 -2 -0 -1 -1 -1 -1 -0 -0 -0 1 1 -1 0 -2 1 -1 1 1 -0 -1 -2 -2 -1 -1 0 1 0 1 2 1 2 1 0 -3 -1 1 0 0 3 1 2 -3 -1 -1
2 -0 -1 -1 -2 -1 1 -2 -1 -1 -2 -3 -0 -0 1 3 1 2 1 1 0 1 -7 -1 -2 -0 -1 -1 -2 -2 -2 -1 -1 -1 -2 -3 -2 -2 -2 -2 -0 -3 -2 -3 -2 0 2
-1 1 0 0 0 0 1 1 -0 -1 1 -1 -2 -2 -1 -0 -1 -1 1 0 -1 -2 -4 -2 -2 -2 1 -1 -1 -2 -2 -2 -3 -2 -2 -2 -2 -2 -1 -1 -1 -1 -1 -1 0 -0 -0
3 0 -1 -1 1 1 1 2 1 2 -1 -0 0 -2 -2 -2 -2 -2 -1 -2 -4 -1 -1 -1 0 -0 -2 -2 -1 -0 -1 -1 -1 -1 -1 -1 -1 -1 -1 -2 -1 -1 -1 -2 -7 -3 -6
0 2 3 1 1 -1 1 1 0 1 1 1 -0 -1 -1 -0 -1 -0 -2 -1 -2 -1 -1 -1 -2 -1 -1 0 0 -0 -1 -1 -1 -1 -2 -1 -2 -1 -1 -1 -0 0 0 -0 -5 -3 -4
0 -0 0 3 4 2 -0 -2 1 1 2 2 -0 -1 -0 -1 -1 -1 -1 -1 -2 -2 -3 -3 -2 -2 -2 -2 -2 -2 -1 -0 -1 -0 -0 -1 -1 -1 -1 1 -0 -0 -0 -0 -0 -0 -1
2 1 -0 -0 -0 2 1 2 -1 -2 -1 0 1 0 -1 -1 0 -1 -1 -0 -1 0 -1 -1 -1 -1 -1 -1 -1 -1 -0 -1 -1 -1 -1 -1 0 -0 -1 1 -0 1 0 -1 -0 -5 -3
-3 -1 4 4 -0 -0 -1 2 -1 2 -0 -2 -1 -1 1 1 -0 0 0 0 -0 -1 -1 -1 -2 -2 -2 -1 -1 -1 -1 -1 0 1 0 1 -1 -1 0 -1 1 -0 -1 -0 -1 -0 -6
1 0 -4 -5 5 0 -1 4 1 -0 0 3 -3 0 1 1 1 -2 -2 -1 -1 -1 0 1 2 2 1 1 1 1 1 0 1 0 -0 -0 -0 -1 -0 0 -0 0 -0 -0 -1 -1 0
1 3 -0 -1 -6 1 3 -3 -0 3 -1 2 3 1 -3 -0 2 -2 -1 -2 -3 -2 -3 -4 -3 -1 0 0 -0 0 -0 -0 -0 -1 -1 -1 -0 -3 -1 -1 -0 -1 2 2 1 2 -4
-1 0 0 3 2 -7 -1 0 -2 -5 2 -2 -1 0 3 2 -2 -2 2 -1 -2 -1 -2 -1 -1 -2 -3 -3 -2 -2 -3 -3 -2 -2 -1 -2 -2 -2 -4 2 4 -0 1 1 3 1 -3
-3 -6 1 -0 0 3 -1 -2 2 -0 -6 0 -4 -5 -1 1 4 3 -1 -3 0 2 3 2 -1 -3 -3 -3 -2 -2 -1 -1 -0 0 0 -1 -2 -1 1 2 -0 -1 1 3 -4 7 -4
0 -2 -5 1 -2 -0 -0 3 -3 -1 3 -4 2 -3 -6 -5 -0 0 3 1 -3 -4 -5 -2 0 2 1 1 3 0 -0 -1 -1 -1 0 -1 -4 -4 -8 -1 0 -7 2 1 3 3 -10
3 2 -6 -2 1 -2 -3 -3 1 -2 -0 1 -3 4 3 -5 -3 -3 0 4 2 4 3 -2 -5 -1 -0 1 -1 -1 2 2 1 1 1 -1 -0 0 -6 0 -1 -12 -7 1 1 1 3
-1 -2 -2 -6 -1 2 -2 -3 -3 1 -2 1 2 -3 0 2 -5 2 -0 -2 2 6 1 -1 3 4 -4 -5 -1 1 1 -1 0 4 5 1 3 1 -6 -0 -3 -0 -2 1 -4 0 -0
-1 0 -0 -5 -4 -0 1 -2 -3 -6 3 -4 -0 3 -3 -5 7 -3 -3 -2 1 3 -0 5 4 1 0 5 -0 -6 -5 -1 -1 -1 0 3 5 -0 -0 -1 -9 -13 -3 1 1 -13 4
-3 -2 3 -1 -6 -6 2 1 -1 -3 0 -2 -4 2 0 -4 1 3 5 -1 -3 -1 -1 1 0 1 3 1 4 -1 -6 -4 -0 -1 -1 0 1 -1 1 -0 -2 -3 5 3 -0 -20 5
-0 -2 1 -0 3 -5 -1 1 2 -0 -3 1 1 -2 3 -2 3 -1 -3 5 -1 1 -4 1 3 -0 1 -1 4 1 -5 2 -7 -2 -2 3 1 -5 7 -1 -12 2 10 7 4 -2 0
-1 0 -5 -6 0 5 -5 -1 1 0 -3 0 0 2 -1 -1 -0 -3 -2 -7 4 1 -1 4 4 -8 2 -0 -2 -4 -1 0 -0 1 -7 -1 2 -5 6 -1 -17 -4 -1 -6 8 0 1
-1 0 3 3 -2 -2 -6 -1 1 -0 -0 1 1 -3 -3 -3 3 6 -4 3 2 -2 13 -10 -5 8 6 -2 2 3 -2 2 4 -4 -3 -5 -10 -1 -11 -11 -4 -0 7 5 2 2 2
Height
3086 3083 3081 3078 3075 3074 3073 3074 3073 3074 3076 3077 3080 3083 3085 3087 3088 3090 3093 3096 3099 3104 3107 3111 3115 3120 3125 3128 3132 3135 3139 3141 3145 3147 3150 3153 3156 3158 3159 3162 3164 3165 3166 3166 3166 3166 3167
3092 3088 3087 3086 3082 3080 3078 3077 3079 3081 3081 3083 3084 3085 3087 3089 3091 3093 3096 3099 3102 3106 3108 3112 3118 3122 3127 3129 3133 3135 3139 3142 3146 3148 3151 3153 3155 3157 3160 3161 3164 3164 3164 3164 3165 3165 3164
3099 3095 3093 3091 3090 3087 3085 3083 3084 3085 3086 3087 3089 3089 3090 3092 3093 3095 3099 3102 3106 3110 3111 3115 3120 3123 3126 3131 3133 3135 3139 3143 3145 3149 3151 3153 3155 3158 3160 3161 3161 3162 3163 3162 3162 3162 3163
3106 3102 3098 3097 3095 3094 3093 3091 3090 3090 3090 3092 3092 3093 3094 3095 3097 3099 3102 3106 3110 3113 3114 3118 3122 3126 3131 3133 3136 3138 3141 3144 3146 3149 3151 3152 3154 3156 3159 3159 3160 3160 3161 3160 3160 3160 3160
3112 3109 3105 3102 3101 3099 3097 3096 3095 3094 3095 3095 3096 3097 3098 3100 3102 3105 3108 3111 3115 3117 3119 3122 3127 3129 3132 3135 3137 3139 3142 3144 3146 3149 3150 3152 3155 3157 3158 3158 3159 3160 3158 3158 3159 3158 3157
3117 3114 3111 3108 3106 3104 3101 3100 3099 3098 3098 3099 3100 3101 3104 3107 3109 3110 3114 3116 3118 3121 3123 3126 3129 3135 3135 3136 3138 3140 3142 3145 3148 3149 3151 3153 3154 3155 3156 3158 3159 3157 3157 3156 3156 3155 3154
3121 3118 3116 3114 3112 3109 3108 3106 3105 3104 3104 3104 3106 3108 3110 3111 3113 3116 3119 3121 3126 3127 3127 3129 3132 3133 3135 3138 3140 3142 3144 3146 3147 3149 3150 3152 3155 3155 3156 3156 3155 3155 3155 3154 3153 3151 3148
3126 3123 3121 3119 3117 3116 3114 3113 3112 3111 3110 3111 3111 3113 3114 3116 3119 3121 3123 3125 3127 3131 3132 3132 3134 3136 3138 3139 3142 3144 3146 3148 3147 3149 3150 3154 3153 3154 3154 3154 3154 3153 3153 3152 3150 3148 3145
3131 3128 3126 3124 3122 3121 3119 3118 3118 3117 3117 3117 3117 3119 3120 3122 3124 3126 3127 3129 3131 3132 3134 3136 3137 3138 3140 3143 3144 3145 3147 3147 3148 3149 3150 3152 3153 3152 3152 3152 3152 3151 3150 3148 3147 3145 3142
3134 3132 3131 3129 3127 3125 3124 3123 3123 3123 3123 3123 3123 3124 3125 3126 3129 3129 3130 3132 3133 3135 3137 3140 3140 3141 3142 3142 3144 3145 3146 3149 3149 3149 3149 3150 3150 3151 3150 3150 3150 3149 3147 3145 3144 3144 3141
3137 3136 3134 3133 3132 3130 3128 3128 3127 3126 3127 3127 3128 3129 3130 3131 3131 3133 3135 3135 3136 3137 3138 3144 3142 3142 3142 3145 3145 3145 3146 3147 3147 3148 3150 3149 3149 3149 3148 3148 3148 3147 3145 3144 3143 3141 3138
3141 3139 3138 3136 3134 3133 3132 3131 3131 3130 3130 3130 3131 3132 3133 3134 3135 3135 3135 3136 3138 3141 3139 3141 3141 3142 3144 3144 3145 3146 3146 3147 3148 3148 3147 3148 3147 3147 3146 3146 3146 3145 3144 3142 3139 3137 3136
3147 3144 3142 3140 3138 3137 3135 3134 3133 3133 3133 3133 3133 3134 3134 3136 3137 3137 3138 3139 3141 3138 3141 3142 3141 3142 3143 3145 3145 3145 3146 3146 3147 3147 3146 3146 3145 3145 3145 3145 3144 3144 3144 3140 3140 3139 3134
3152 3150 3148 3145 3143 3141 3139 3137 3136 3135 3135 3135 3135 3135 3135 3136 3137 3138 3139 3141 3139 3138 3139 3140 3141 3142 3144 3144 3145 3145 3145 3146 3146 3146 3145 3144 3144 3143 3143 3143 3143 3142 3142 3141 3148 3143 3132
3154 3153 3151 3150 3148 3145 3143 3142 3140 3138 3137 3137 3137 3136 3136 3136 3137 3138 3140 3139 3138 3138 3139 3140 3141 3142 3143 3144 3145 3145 3144 3144 3144 3144 3145 3143 3141 3141 3140 3140 3142 3139 3139 3140 3138 3135 3134
3156 3155 3154 3152 3151 3150 3148 3145 3143 3142 3141 3140 3139 3138 3137 3137 3137 3137 3138 3137 3137 3138 3139 3140 3141 3142 3142 3143 3144 3143 3143 3143 3143 3143 3142 3142 3140 3138 3138 3138 3138 3137 3139 3138 3137 3139 3140
3161 3157 3156 3155 3153 3152 3151 3150 3147 3145 3144 3143 3142 3140 3139 3138 3138 3138 3138 3137 3137 3138 3139 3141 3141 3142 3142 3142 3142 3142 3142 3142 3141 3141 3140 3140 3140 3139 3136 3135 3134 3135 3134 3135 3135 3134 3134
3162 3160 3157 3157 3156 3154 3153 3152 3151 3149 3146 3145 3144 3143 3142 3140 3140 3138 3138 3138 3138 3139 3139 3140 3140 3140 3141 3141 3140 3141 3141 3140 3139 3139 3139 3138 3136 3134 3133 3132 3131 3131 3131 3131 3132 3131 3129
3163 3161 3160 3157 3155 3156 3154 3153 3152 3151 3149 3147 3145 3144 3144 3142 3141 3139 3139 3139 3139 3139 3139 3139 3139 3140 3140 3140 3140 3139 3139 3139 3138 3138 3137 3136 3135 3133 3130 3132 3129 3128 3128 3128 3128 3127 3124
3162 3161 3160 3159 3155 3154 3155 3154 3153 3151 3151 3150 3147 3146 3144 3143 3141 3140 3139 3139 3138 3138 3138 3138 3138 3139 3139 3139 3139 3138 3138 3137 3136 3136 3135 3134 3131 3131 3129 3128 3127 3125 3125 3125 3124 3122 3117
3159 3158 3159 3158 3157 3154 3152 3152 3152 3151 3150 3151 3148 3147 3145 3144 3142 3140 3139 3139 3138 3138 3137 3136 3136 3136 3137 3137 3136 3135 3135 3134 3133 3132 3131 3130 3127 3125 3124 3122 3120 3118 3117 3117 3114 3114 3113
3156 3154 3154 3155 3154 3153 3151 3149 3148 3148 3147 3146 3147 3145 3144 3143 3142 3141 3139 3137 3136 3136 3137 3136 3135 3134 3134 3134 3135 3133 3132 3132 3131 3129 3128 3127 3124 3121 3117 3117 3114 3111 3111 3108 3106 3104 3100
3152 3151 3149 3149 3150 3149 3148 3147 3146 3144 3143 3143 3142 3141 3140 3139 3139 3139 3138 3136 3135 3134 3133 3132 3132 3132 3132 3131 3130 3129 3128 3128 3126 3125 3124 3123 3121 3119 3114 3112 3110 3106 3100 3102 3100 3097 3097
3145 3145 3145 3143 3143 3144 3144 3143 3142 3140 3139 3139 3138 3137 3136 3134 3133 3134 3133 3133 3132 3131 3130 3129 3129 3127 3128 3127 3126 3125 3123 3122 3120 3119 3118 3116 3117 3117 3111 3110 3109 3098 3096 3095 3094 3092 3090
3137 3137 3138 3137 3136 3136 3137 3137 3136 3135 3134 3133 3132 3132 3131 3129 3129 3128 3128 3129 3128 3127 3126 3125 3125 3124 3123 3123 3121 3119 3118 3116 3112 3111 3111 3112 3113 3113 3110 3105 3098 3095 3090 3090 3087 3087 3085
3129 3129 3129 3128 3129 3128 3129 3129 3129 3129 3129 3128 3127 3125 3123 3124 3124 3123 3122 3121 3121 3121 3121 3120 3119 3118 3118 3117 3116 3112 3110 3110 3109 3106 3105 3105 3106 3110 3106 3105 3098 3090 3086 3083 3082 3080 3080
3122 3122 3121 3121 3121 3121 3121 3121 3121 3121 3120 3120 3120 3119 3118 3116 3117 3116 3116 3116 3114 3115 3114 3113 3113 3112 3111 3109 3110 3107 3104 3102 3101 3101 3100 3099 3099 3098 3099 3098 3087 3084 3082 3079 3081 3080 3073
3113 3113 3113 3113 3113 3112 3113 3113 3112 3112 3113 3114 3112 3110 3110 3108 3109 3109 3108 3109 3108 3107 3107 3107 3107 3104 3102 3101 3101 3101 3096 3095 3092 3090 3091 3093 3093 3091 3091 3092 3081 3076 3075 3078 3075 3070 3066
3101 3102 3103 3103 3104 3104 3104 3104 3103 3103 3103 3103 3104 3101 3099 3098 3100 3099 3098 3099 3098 3098 3098 3095 3098 3098 3096 3095 3093 3090 3089 3086 3086 3084 3086 3084 3081 3081 3081 3074 3072 3071 3069 3067 3064 3059 3056